This is the latest recevied weather packets stored in our database for station/object W3BRL. If no packets are shown the sender has not sent any weather packets the latest 10 day(s).
| Time | Temp. | Humidity | Pressure | Rain* | Wind** | Luminosity | Snow |
|---|---|---|---|---|---|---|---|
| 1777646432 | 11.11° C | 59% | 1010.5 hPa | 0 mm | - | 353 W/m² | - |
| 1777646129 | 11.11° C | 60% | 1010.2 hPa | 0 mm | - | 329 W/m² | - |
| 1777645827 | 11.11° C | 58% | 1010.3 hPa | 0 mm | - | 328 W/m² | - |
| 1777645524 | 11.67° C | 60% | 1010.2 hPa | 0 mm | - | 329 W/m² | - |
| 1777645220 | 11.67° C | 58% | 1010.2 hPa | 0 mm | - | 402 W/m² | - |
| 1777644915 | 11.11° C | 62% | 1010.3 hPa | 0 mm | - | 760 W/m² | - |
| 1777644614 | 10.56° C | 67% | 1010.3 hPa | 0 mm | - | 657 W/m² | - |
| 1777644309 | 10.56° C | 68% | 1010.3 hPa | 0 mm | - | 330 W/m² | - |
| 1777644005 | 10° C | 70% | 1010.3 hPa | 0 mm | - | 247 W/m² | - |
| 1777643702 | 9.44° C | 75% | 1010.4 hPa | 0 mm | - | 420 W/m² | - |
| 1777643400 | 9.44° C | 74% | 1010.5 hPa | 0 mm | - | 325 W/m² | - |
| 1777643096 | 8.89° C | 77% | 1010.5 hPa | 0 mm | - | 309 W/m² | - |
| 1777642793 | 8.33° C | 78% | 1010.3 hPa | 0 mm | - | 297 W/m² | - |
| 1777642490 | 8.33° C | 79% | 1010.6 hPa | 0 mm | - | 275 W/m² | - |
| 1777642186 | 7.78° C | 81% | 1010.7 hPa | 0 mm | - | 264 W/m² | - |
| 1777641884 | 7.78° C | 82% | 1010.9 hPa | 0 mm | - | 246 W/m² | - |
| 1777641584 | 7.78° C | 84% | 1010.6 hPa | 0 mm | - | 244 W/m² | - |
| 1777641283 | 7.22° C | 86% | 1010.8 hPa | 0 mm | - | 242 W/m² | - |
| 1777640980 | 7.22° C | 86% | 1011 hPa | 0 mm | - | 242 W/m² | - |
| 1777640677 | 7.22° C | 88% | 1010.9 hPa | 0 mm | - | 221 W/m² | - |
| 1777640373 | 6.67° C | 91% | 1011 hPa | 0 mm | - | 310 W/m² | - |
| 1777640070 | 6.67° C | 92% | 1011.2 hPa | 0 mm | - | 197 W/m² | - |
| 1777639767 | 6.11° C | 94% | 1011 hPa | 0 mm | - | 230 W/m² | - |
| 1777639465 | 5.56° C | 95% | 1011.1 hPa | 0 mm | - | 206 W/m² | - |
| 1777639161 | 5.56° C | 95% | 1011.3 hPa | 0 mm | - | 212 W/m² | - |
* Rain latest hour (hover to see other rain measurements)
** Current wind speed in m/s (hover to see current wind gust speed)